Weather History for Trabzon, Turkey

Change the Weather History Date:

Friday, September 20, 2013

  Actual Average Record
Temperature  
Mean Temperature 72 °F -  
Max Temperature 77 °F 68 °F 81 °F (2012)
Min Temperature 68 °F 58 °F 57 °F (1996)
Cooling Degree Days 8    
Growing Degree Days 22 (Base 50)    
Moisture  
Dew Point 67 °F    
Average Humidity 80    
Maximum Humidity 88    
Minimum Humidity 65    
Precipitation  
Precipitation 0.01 in - - ()
Sea Level Pressure  
Sea Level Pressure 29.82 in    
Wind  
Wind Speed 5 mph ()    
Max Wind Speed 16 mph    
Max Gust Speed 18 mph    
Visibility 6.3 miles    
Events Rain , Thunderstorm    
Averages and records for this station are not official NWS values.
T = Trace of Precipitation, MM = Missing Value Source: Averaged Metar Reports

Daily Weather History Graph

Daily Weather History Graph

Search for Another Location

Airport:

Trip Planner

Search our weather history database for the weather conditions in past years. The results will help you decide how hot, cold, wet, or windy it might be!

Date:

Astronomy

Sep. 20, 2013 Rise Set
Actual Time 6:06 AM EEST 6:21 PM EEST
Civil Twilight 5:38 AM EEST 6:49 PM EEST
Nautical Twilight 5:06 AM EEST 7:21 PM EEST
Astronomical Twilight 4:33 AM EEST 7:54 PM EEST
Moon 6:41 PM EEST (9/20) 6:58 AM EEST (9/20)
Length of Visible Light 13h 10m
Length of Day
12h 15m
Full, 99% of the Moon is Illuminated
Sep 20
Full
Sep 27
Last Quarter
Oct 5
New
Oct 12
First Quarter
Oct 19
Full

Hourly Weather History & Observations

Time (EEST) Temp. Dew Point Humidity Pressure Visibility Wind Dir Wind Speed Gust Speed Precip Events Conditions
12:20 AM 71.6 °F 64.4 °F 78% 29.83 in 6.2 mi Variable 6.9 mph - N/A Rain , Thunderstorm Light Thunderstorms and Rain
12:50 AM 69.8 °F 64.4 °F 83% 29.83 in 6.2 mi SW 5.8 mph - N/A Rain , Thunderstorm Light Thunderstorms and Rain
1:20 AM 69.8 °F 64.4 °F 83% 29.80 in 6.2 mi ESE 10.4 mph - N/A Rain , Thunderstorm Light Thunderstorms and Rain
1:50 AM 69.8 °F 62.6 °F 78% 29.80 in 6.2 mi Variable 1.2 mph - N/A Rain , Thunderstorm Light Thunderstorms and Rain
2:20 AM 69.8 °F 62.6 °F 78% 29.80 in 6.2 mi West 5.8 mph - N/A Rain , Thunderstorm Light Thunderstorms and Rain
2:50 AM 69.8 °F 62.6 °F 78% 29.77 in 6.2 mi Variable 1.2 mph - N/A Rain , Thunderstorm Light Thunderstorms and Rain
3:20 AM 68.0 °F 62.6 °F 83% 29.77 in 6.2 mi Variable 6.9 mph - N/A   Mostly Cloudy
3:50 AM 68.0 °F 62.6 °F 83% 29.77 in 6.2 mi SSW 6.9 mph - N/A   Mostly Cloudy
4:20 AM 68.0 °F 62.6 °F 83% 29.77 in 6.2 mi WSW 4.6 mph - N/A   Mostly Cloudy
4:50 AM 69.8 °F 62.6 °F 78% 29.77 in 6.2 mi Variable 3.5 mph - N/A   Mostly Cloudy
5:20 AM 69.8 °F 62.6 °F 78% 29.77 in 6.2 mi West 13.8 mph - N/A   Mostly Cloudy
5:50 AM 68.0 °F 62.6 °F 83% 29.77 in 6.2 mi West 16.1 mph - N/A   Mostly Cloudy
6:20 AM 69.8 °F 62.6 °F 78% 29.77 in 6.2 mi SW 6.9 mph - N/A   Mostly Cloudy
6:50 AM 69.8 °F 64.4 °F 83% 29.77 in 6.2 mi SW 9.2 mph - N/A   Scattered Clouds
7:20 AM 71.6 °F 64.4 °F 78% 29.77 in 6.2 mi SW 8.1 mph - N/A   Scattered Clouds
7:50 AM 73.4 °F 62.6 °F 69% 29.77 in 6.2 mi SSW 4.6 mph - N/A   Scattered Clouds
8:20 AM 75.2 °F 62.6 °F 65% 29.77 in 6.2 mi Variable 2.3 mph 15.0 mph N/A   Scattered Clouds
8:50 AM 77.0 °F 64.4 °F 65% 29.77 in 6.2 mi ESE 4.6 mph - N/A   Scattered Clouds
9:20 AM 77.0 °F 66.2 °F 69% 29.77 in 6.2 mi Variable 1.2 mph - N/A   Scattered Clouds
9:50 AM 77.0 °F 66.2 °F 69% 29.77 in 6.2 mi NW 4.6 mph - N/A   Scattered Clouds
10:20 AM 75.2 °F 68.0 °F 78% 29.77 in 6.2 mi WNW 10.4 mph - N/A   Scattered Clouds
10:50 AM 75.2 °F 68.0 °F 78% 29.80 in 6.2 mi WNW 9.2 mph - N/A   Scattered Clouds
11:20 AM 75.2 °F 69.8 °F 83% 29.77 in 6.2 mi WNW 5.8 mph - N/A   Scattered Clouds
11:50 AM 77.0 °F 69.8 °F 78% 29.77 in 6.2 mi NNW 4.6 mph - N/A   Scattered Clouds
12:20 PM 77.0 °F 69.8 °F 78% 29.80 in 6.2 mi NNW 5.8 mph - N/A   Scattered Clouds
12:50 PM 75.2 °F 69.8 °F 83% 29.80 in 6.2 mi NNW 4.6 mph - N/A   Scattered Clouds
12:59 PM 75.2 °F 69.8 °F 83% 29.80 in 6.2 mi NW 3.5 mph - N/A Rain Light Rain Showers
1:20 PM 75.2 °F 69.8 °F 83% 29.80 in 6.2 mi Variable 1.2 mph - N/A   Mostly Cloudy
1:50 PM 77.0 °F 69.8 °F 78% 29.80 in 6.2 mi NNW 5.8 mph - N/A   Mostly Cloudy
2:20 PM 77.0 °F 69.8 °F 78% 29.80 in 6.2 mi Calm Calm - N/A   Mostly Cloudy
2:50 PM 75.2 °F 69.8 °F 83% 29.80 in 6.2 mi Calm Calm - N/A   Mostly Cloudy
3:00 PM 76 °F 69 °F 74% 29.81 in 12 mi Calm Calm - -   Partly Cloudy
3:20 PM 75.2 °F 69.8 °F 83% 29.80 in 6.2 mi ENE 1.2 mph - N/A   Mostly Cloudy
3:50 PM 75.2 °F 69.8 °F 83% 29.80 in 6.2 mi Calm Calm - N/A   Mostly Cloudy
4:20 PM 75.2 °F 69.8 °F 83% 29.80 in 6.2 mi East 6.9 mph - N/A   Mostly Cloudy
4:50 PM 75.2 °F 69.8 °F 83% 29.80 in 6.2 mi Variable 2.3 mph - N/A   Mostly Cloudy
5:20 PM 75.2 °F 69.8 °F 83% 29.83 in 6.2 mi Calm Calm - N/A   Mostly Cloudy
5:50 PM 75.2 °F 69.8 °F 83% 29.86 in 6.2 mi NW 4.6 mph - N/A   Mostly Cloudy
6:20 PM 75.2 °F 69.8 °F 83% 29.86 in 6.2 mi WNW 10.4 mph - N/A   Mostly Cloudy
6:50 PM 75.2 °F 69.8 °F 83% 29.89 in 6.2 mi NW 16.1 mph - N/A   Mostly Cloudy
7:20 PM 75.2 °F 69.8 °F 83% 29.89 in 6.2 mi WNW 15.0 mph - N/A   Mostly Cloudy
7:50 PM 73.4 °F 66.2 °F 78% 29.89 in 6.2 mi WNW 12.7 mph - N/A   Mostly Cloudy
8:20 PM 73.4 °F 68.0 °F 83% 29.92 in 6.2 mi SW 3.5 mph - N/A   Mostly Cloudy
8:50 PM 73.4 °F 68.0 °F 83% 29.92 in 6.2 mi SW 4.6 mph - N/A Rain , Thunderstorm Light Thunderstorms and Rain
9:00 PM 73 °F 67 °F 78% 29.93 in 6 mi SW 4.6 mph - - Rain , Thunderstorm Thunderstorms and Rain
9:20 PM 71.6 °F 68.0 °F 88% 29.92 in 6.2 mi SW 3.5 mph - N/A Thunderstorm Thunderstorm
9:50 PM 71.6 °F 66.2 °F 83% 29.92 in 6.2 mi Variable 4.6 mph 18.4 mph N/A Thunderstorm Thunderstorm
10:20 PM 71.6 °F 66.2 °F 83% 29.92 in 6.2 mi South 3.5 mph - N/A Thunderstorm Thunderstorm
10:50 PM 71.6 °F 66.2 °F 83% 29.92 in 6.2 mi Variable 2.3 mph - N/A Thunderstorm Thunderstorm
11:20 PM 73.4 °F 64.4 °F 73% 29.92 in 6.2 mi Variable 2.3 mph - N/A Thunderstorm Thunderstorm
11:31 PM 73.4 °F 64.4 °F 73% 29.92 in 6.2 mi Variable 2.3 mph - N/A   Mostly Cloudy
11:50 PM 71.6 °F 66.2 °F 83% 29.92 in 6.2 mi South 4.6 mph - N/A   Mostly Cloudy